This is the latest recevied weather packets stored in our database for station/object N0HEQ. If no packets are shown the sender has not sent any weather packets the latest 1 day(s).
| Time | Temp. | Humidity | Pressure | Rain* | Wind** | Luminosity | Snow |
|---|---|---|---|---|---|---|---|
| 1836274622 | 16.11° C | 53% | 1023.1 hPa | 0 mm | 0 m/s | 0 W/m² | - |
| 1836274475 | 15.56° C | 49% | 1023.3 hPa | 0 mm | 0.45 m/s, 57° | 0 W/m² | - |
| 1836274320 | 16.11° C | 50% | 1023.2 hPa | 0 mm | 0.45 m/s, 95° | 0 W/m² | - |
| 1836274173 | 16.11° C | 52% | 1023.3 hPa | 0 mm | 0 m/s | 0 W/m² | - |
| 1836274019 | 16.11° C | 50% | 1023.2 hPa | 0 mm | 0 m/s | 0 W/m² | - |
| 1778033794 | 0° C | 98% | 1016.9 hPa | 0 mm | 0.89 m/s, 50° | 0 W/m² | - |
| 1778033491 | 0° C | 98% | 1016.7 hPa | 0 mm | 0.89 m/s, 119° | 0 W/m² | - |
| 1778033188 | 0° C | 98% | 1016.9 hPa | 0 mm | 0.45 m/s, 62° | 0 W/m² | - |
| 1778032885 | 0° C | 98% | 1016.8 hPa | 0 mm | 0 m/s | 0 W/m² | - |
| 1778032583 | 0° C | 98% | 1016.7 hPa | 0 mm | 0 m/s | 0 W/m² | - |
| 1778032279 | 0° C | 98% | 1016.6 hPa | 0 mm | 0.45 m/s, 75° | 0 W/m² | - |
| 1778031977 | 0° C | 98% | 1016.7 hPa | 0 mm | 0.45 m/s, 109° | 0 W/m² | - |
| 1778031672 | 0° C | 98% | 1016.3 hPa | 0 mm | 0 m/s | 0 W/m² | - |
| 1778031371 | 0° C | 98% | 1016.5 hPa | 0 mm | 0 m/s | 0 W/m² | - |
| 1778031067 | 0° C | 98% | 1016.5 hPa | 0 mm | 0.45 m/s, 89° | 1 W/m² | - |
| 1778030764 | 0° C | 98% | 1016.2 hPa | 0 mm | 0 m/s | 1 W/m² | - |
| 1778030460 | 0° C | 98% | 1016.5 hPa | 0 mm | 0.45 m/s, 70° | 1 W/m² | - |
| 1778030158 | 0° C | 98% | 1016.5 hPa | 0 mm | 0.45 m/s, 150° | 2 W/m² | - |
| 1778029854 | 0° C | 97% | 1016.1 hPa | 0 mm | 0 m/s | 2 W/m² | - |
| 1778029553 | 0° C | 98% | 1016.3 hPa | 0 mm | 0.89 m/s, 155° | 2 W/m² | - |
| 1778029249 | 0° C | 97% | 1016.3 hPa | 0 mm | 0 m/s | 3 W/m² | - |
| 1778028947 | 0° C | 97% | 1016.3 hPa | 0 mm | 0.45 m/s, 110° | 4 W/m² | - |
| 1778028643 | 0° C | 97% | 1016.1 hPa | 0 mm | 0.89 m/s, 279° | 3 W/m² | - |
| 1778028340 | 0° C | 97% | 1016.2 hPa | 0 mm | 0.45 m/s, 124° | 4 W/m² | - |
| 1778028047 | 0° C | 97% | 1016.1 hPa | 0 mm | 0.89 m/s, 59° | 7 W/m² | - |
* Rain latest hour (hover to see other rain measurements)
** Current wind speed in m/s (hover to see current wind gust speed)